Location: Lafig�re
(44.4503°N, 4.0357°E)
Time: 15:40:06
(UTC+00:00)

Transit 2A Rocket - Pass Details

Date: 30 January 2021
Orbit: 594 x 908 km, 66.7° (Epoch: 06 March)

Event Time Altitude Azimuth Distance (km) Brightness Sun altitude
Rises 18:46:08 0° 330° (NNW) 2,905 8.3 -20.7°
Reaches altitude 10° 18:48:28 10° 334° (NNW) 1,969 7.4 -21.2°
Enters shadow 18:52:35 59° 38° (NE) 690 4.5 -21.9°
Maximum altitude 18:52:49 61° 55° (NE) 682 - -21.9°
Drops below altitude 10° 18:57:03 10° 136° (SE) 1,925 - -22.7°
Sets 18:59:19 0° 140° (SE) 2,833 - -23.1°
